Find Kosmos-2401

NORAD ID: 27869 Int'l Des: 2003-037 Owner: KVR Country: RU operational
LEOCIRCULARPOLAR

現在のビュー

3D地球を読み込み中...

About Kosmos-2401

Kosmos-2401 (NORAD 27869) is a satellite launched Aug 19, 2003 by KVR of RU. It operates in LEO, CIRCULAR, POLAR orbit with a mass of 225.00 kg.

次回通過

Passes for default location (London). Set your location on the main map for personalized predictions.

高度履歴

Loading altitude history...

軌道要素

1 27869U 03037B 26194.85604098 -.00000053 00000-0 -44198-3 0 9996
2 27869 82.4725 309.4957 0021890 355.1448 4.9417 12.45503478 41097
Epoch: Jul 13, 2026 • Age: 11 hours

現在のステータス

高度 1507.0 km
遠地点 / 近地点 N/A
速度 7.11 km/s
衛星直下点 -78.87°S, 140.07°W
打ち上げ日 Aug 19, 2003
運用期間 22.9 years
タイプ other

技術仕様

分類 Payload
質量 225.00 kg
乾燥質量 225.00 kg
総質量 225.00 kg
長さ 1.60 m
直径 0.80 m
スパン 7.00 m
形状 Cyl + Ant
製造者 NPOPMR
バスタイプ Strela-3
フェーズステータス In Orbit
所有者/国 KVR/RU

Most Searched